Location: Unspecified
(0.0000°N, 0.0000°E)
Time: 04:23:15
(UTC+00:00)

Vanguard 1 - Visible Passes

Search period start: 24 February 2018 00:00
Search period end: 06 March 2018 00:00
Orbit: 650 x 3833 km, 34.2° (Epoch: 23 February)

Date Brightness Start Highest point End Pass type
(mag) Time Alt. Az. Time Alt. Az. Time Alt. Az.
24 Feb 13.5 03:46:04 10° S 03:50:33 12° S 03:55:45 10° SSE visible
25 Feb 13.6 04:07:44 10° S 04:13:51 13° SSE 04:21:09 10° SE visible
26 Feb 13.7 04:28:40 10° SSW 04:37:04 15° SSE 04:47:28 10° SE visible
27 Feb 13.7 04:49:19 10° SSW 05:00:02 19° SSE 05:13:42 10° ESE visible
27 Feb 11.3 19:39:35 10° N 19:41:09 14° N 19:41:09 14° N visible
28 Feb 13.7 05:09:51 10° SSW 05:22:40 25° SSE 05:39:17 10° ESE visible
28 Feb 11.2 19:59:31 10° NNW 20:01:24 19° NNW 20:01:24 19° NNW visible
01 Mar 13.6 05:30:23 10° SSW 05:44:59 31° SE 06:04:01 10° E visible
01 Mar 11.3 20:20:04 10° NW 20:21:41 20° NW 20:21:41 20° NW visible
02 Mar 13.6 03:33:30 10° S 03:38:44 12° SSE 03:44:57 10° SE visible
02 Mar 11.8 20:41:03 10° WNW 20:41:59 15° WNW 20:41:59 15° WNW visible
03 Mar 13.6 03:53:07 10° S 04:01:21 17° SSE 04:12:00 10° ESE visible
03 Mar 10.9 18:41:47 10° NNW 18:46:18 22° NNE 18:49:33 12° ENE visible
04 Mar 13.5 04:13:08 10° SSW 04:23:37 22° SSE 04:37:58 10° ESE visible
04 Mar 10.1 19:02:09 10° NW 19:07:34 37° NNE 19:09:54 23° E visible
05 Mar 13.4 04:33:20 10° SSW 04:45:34 29° SE 05:02:57 10° E visible
05 Mar 9.3 19:22:56 10° NW 19:28:39 71° NE 19:30:15 39° ESE visible
